Location: Miles
(41.4492°N, 81.6087°W)
Time: 08:57:13
(UTC+00:00)

Transit 2A - Pass Details

Date: 20 September 2024
Orbit: 590 x 960 km, 66.7° (Epoch: 09 October)

Event Time Altitude Azimuth Distance (km) Brightness Sun altitude
Rises 23:21:10 0° 230° (SW) 3,434 10.3 0.1°
Reaches altitude 10° 23:23:42 10° 238° (WSW) 2,548 9.8 -0.4°
Maximum altitude 23:29:22 43° 308° (NW) 1,289 7.8 -1.4°
Drops below altitude 10° 23:35:22 10° 19° (NNE) 2,694 8.7 -2.6°
Sets 23:38:08 0° 26° (NNE) 3,650 9.3 -3.1°
